Weather reports worldwide

Advertisment
Norfolk VA/Intl, United States of America (72308): temperature & dewpoint: 01.07.2020 18:00:00 - 07.07.2020 18:00:00 (EDT)Norfolk VA/Intl, United States of America (72308): wind speed & gusts: 01.07.2020 18:00:00 - 07.07.2020 18:00:00 (EDT)Norfolk VA/Intl, United States of America (72308): wind direction: 01.07.2020 18:00:00 - 07.07.2020 18:00:00 (EDT)Norfolk VA/Intl, United States of America (72308): reduced air pressure: 01.07.2020 18:00:00 - 07.07.2020 18:00:00 (EDT)Norfolk VA/Intl, United States of America (72308): visibility: 01.07.2020 18:00:00 - 07.07.2020 18:00:00 (EDT)Norfolk VA/Intl, United States of America (72308): precipitation: 01.07.2020 18:00:00 - 07.07.2020 18:00:00 (EDT)
Date & Time tt [°C] td [°C] ff [km/h] ff [kn] fx [km/h] fx [kn] dd ppp [hPa] vv [km] rr [mm]
07.07.2020 18:00:00 - - - - - - - - - -
07.07.2020 17:00:00 32,8 23,3 16 9 - - SSE 1016,3 16 0,0
07.07.2020 16:00:00 32,8 23,9 16 9 - - SE 1017,0 16 -
07.07.2020 15:00:00 31,7 22,2 15 8 - - SE 1017,1 16 -
07.07.2020 14:00:00 32,2 22,2 21 11 - - S 1017,6 10 0,0
07.07.2020 13:00:00 33,3 21,7 15 8 - - SE 1017,8 16 -
07.07.2020 12:00:00 31,7 20,6 15 8 - - S 1017,9 16 -
07.07.2020 11:00:00 30,0 21,1 9 5 - - S 1018,1 16 0,0
07.07.2020 10:00:00 30,0 21,7 8 4 - - - 1018,0 16 -
07.07.2020 09:00:00 28,9 22,8 8 4 - - SSW 1018,1 16 -
07.07.2020 08:00:00 27,2 23,3 13 7 - - SSW 1018,1 16 0,0
07.07.2020 07:00:00 25,6 22,8 9 5 - - SSW 1018,0 16 -
07.07.2020 06:00:00 25,0 22,8 8 4 - - S 1018,4 16 -
07.07.2020 05:00:00 25,6 22,8 13 7 - - SW 1018,0 16 0,0
07.07.2020 04:00:00 25,6 22,2 13 7 - - SSW 1017,8 16 -
07.07.2020 03:00:00 26,1 22,8 13 7 - - SSW 1018,0 16 -
07.07.2020 02:00:00 26,7 22,8 13 7 - - SSW 1018,1 16 0,0
07.07.2020 01:00:00 27,2 22,2 9 5 - - S 1018,4 15 -
07.07.2020 00:00:00 27,8 21,7 11 6 - - SSW 1018,1 16 -
06.07.2020 23:00:00 28,3 21,1 18 10 - - SSW 1018,0 16 0,0
06.07.2020 22:00:00 29,4 21,7 21 11 - - SSW 1017,7 16 -
06.07.2020 21:00:00 30,0 21,7 13 7 - - S 1016,7 16 -
06.07.2020 20:00:00 31,1 21,1 15 8 - - S 1016,3 16 0,0
06.07.2020 19:00:00 32,8 20,0 18 10 - - S 1016,3 16 -
06.07.2020 18:00:00 33,3 20,6 21 11 - - SSW 1016,4 16 -
06.07.2020 17:00:00 34,4 21,1 22 12 - - SSW 1016,3 16 0,0
06.07.2020 16:00:00 35,0 20,0 22 12 - - SSW 1016,8 16 -
06.07.2020 15:00:00 34,4 21,7 18 10 - - S 1017,4 16 -
06.07.2020 14:00:00 34,4 20,0 21 11 - - SSW 1017,8 10 0,0
06.07.2020 13:00:00 33,9 21,1 16 9 - - SSW 1018,2 16 -
06.07.2020 12:00:00 32,8 20,6 - - - - - 1018,6 16 -
06.07.2020 11:00:00 31,7 21,7 5 3 - - - 1018,6 16 0,0
06.07.2020 10:00:00 30,0 22,2 9 5 - - SW 1018,5 16 -
06.07.2020 09:00:00 28,3 23,3 9 5 - - SW 1018,4 16 -
06.07.2020 08:00:00 26,1 23,3 15 8 - - SSW 1018,2 16 0,0
06.07.2020 07:00:00 24,4 22,2 5 3 - - SSW 1017,7 16 -
06.07.2020 06:00:00 23,9 21,7 5 3 - - SW 1017,1 16 -
06.07.2020 05:00:00 23,9 21,7 5 3 - - S 1016,7 16 0,0
06.07.2020 04:00:00 24,4 21,7 5 3 - - S 1016,5 16 -
06.07.2020 03:00:00 24,4 21,1 8 4 - - SSW 1016,4 16 -
06.07.2020 02:00:00 25,0 21,1 11 6 - - SSW 1016,7 16 0,0
06.07.2020 01:00:00 25,0 20,6 9 5 - - S 1017,0 16 -
06.07.2020 00:00:00 25,6 20,6 11 6 - - S 1016,9 16 -
05.07.2020 23:00:00 26,1 20,0 11 6 - - S 1016,7 16 0,0
05.07.2020 22:00:00 26,1 19,4 13 7 - - S 1016,1 16 -
05.07.2020 21:00:00 27,2 19,4 11 6 - - S 1015,1 16 -
05.07.2020 20:00:00 28,3 17,8 13 7 - - S 1015,1 16 0,0
05.07.2020 19:00:00 29,4 18,9 13 7 - - S 1015,0 16 -
05.07.2020 18:00:00 31,1 18,3 13 7 - - S 1014,8 16 -
05.07.2020 17:00:00 32,2 19,4 15 8 - - SSE 1014,7 16 0,0
05.07.2020 16:00:00 30,6 19,4 13 7 - - SE 1015,3 16 -
05.07.2020 15:00:00 30,6 21,1 13 7 - - E 1015,9 16 -
05.07.2020 14:00:00 28,9 22,8 9 5 - - N 1016,1 16 0,0
05.07.2020 13:00:00 28,3 22,8 15 8 - - NE 1016,3 16 -
05.07.2020 12:00:00 30,6 22,8 15 8 - - NNE 1016,3 16 -
05.07.2020 11:00:00 29,4 22,2 15 8 - - NE 1016,3 16 0,0
05.07.2020 10:00:00 28,9 19,4 8 4 - - NE 1015,9 16 -
05.07.2020 09:00:00 27,2 20,6 0 0 - - N 1015,6 16 -
05.07.2020 08:00:00 25,0 21,7 0 0 - - N 1015,4 16 0,0
05.07.2020 07:00:00 23,9 21,7 0 0 - - N 1015,2 16 -
05.07.2020 06:00:00 22,8 21,1 0 0 - - N 1014,7 16 -
05.07.2020 05:00:00 22,8 21,1 5 3 - - SSW 1014,5 16 0,0
05.07.2020 04:00:00 23,3 21,1 0 0 - - N 1014,2 16 -
05.07.2020 03:00:00 23,9 21,7 5 3 - - S 1014,4 16 -
05.07.2020 02:00:00 23,9 21,7 8 4 - - ESE 1014,6 16 0,0
05.07.2020 01:00:00 23,9 21,1 0 0 - - N 1014,4 15 -
05.07.2020 00:00:00 24,4 21,7 0 0 - - N 1014,5 13 -
04.07.2020 23:00:00 24,4 21,7 5 3 - - S 1014,5 15 0,0
04.07.2020 22:00:00 24,4 21,1 8 4 - - S 1013,9 16 -
04.07.2020 21:00:00 25,0 21,1 9 5 - - ESE 1013,4 16 -
04.07.2020 20:00:00 26,1 21,1 11 6 - - ESE 1013,2 16 0,0
04.07.2020 19:00:00 26,7 21,1 15 8 - - ESE 1012,9 16 -
04.07.2020 18:00:00 27,8 21,7 16 9 - - ENE 1012,4 16 -
04.07.2020 17:00:00 27,2 21,1 16 9 - - E 1013,1 16 0,0
04.07.2020 16:00:00 28,9 21,7 21 11 - - E 1013,0 16 -
04.07.2020 15:00:00 28,9 22,2 21 11 - - ENE 1013,3 16 -
04.07.2020 14:00:00 29,4 22,8 21 11 - - NE 1013,1 16 0,0
04.07.2020 13:00:00 29,4 22,8 18 10 - - ENE 1013,2 16 -
04.07.2020 12:00:00 29,4 22,8 15 8 - - ENE 1013,2 16 -
04.07.2020 11:00:00 30,0 22,8 24 13 - - NNE 1012,7 16 0,0
04.07.2020 10:00:00 30,0 25,0 22 12 - - N 1011,9 16 -
04.07.2020 09:00:00 29,4 23,3 13 7 - - N 1011,5 16 -
04.07.2020 08:00:00 28,9 22,2 8 4 - - - 1011,1 16 0,0
04.07.2020 07:00:00 27,2 21,7 5 3 - - WNW 1011,0 16 -
04.07.2020 06:00:00 26,7 21,7 5 3 - - W 1010,7 16 -
04.07.2020 05:00:00 26,1 21,1 5 3 - - WSW 1010,4 16 0,0
04.07.2020 04:00:00 26,1 21,1 5 3 - - WSW 1010,5 16 -
04.07.2020 03:00:00 27,8 21,1 8 4 - - WSW 1010,7 16 -
04.07.2020 02:00:00 27,8 21,1 5 3 - - WSW 1010,9 16 0,0
04.07.2020 01:00:00 28,3 21,1 8 4 - - WSW 1011,0 16 -
04.07.2020 00:00:00 27,8 21,1 0 0 - - N 1011,1 16 -
03.07.2020 23:00:00 28,9 21,1 0 0 - - N 1011,3 16 0,0
03.07.2020 22:00:00 29,4 22,8 0 0 - - N 1011,0 16 -
03.07.2020 21:00:00 31,1 20,6 0 0 - - N 1010,4 16 -
03.07.2020 20:00:00 32,8 19,4 5 3 - - W 1010,2 16 0,0
03.07.2020 19:00:00 33,9 20,0 8 4 - - - 1010,2 16 -
03.07.2020 18:00:00 34,4 19,4 8 4 - - NE 1010,5 16 -
03.07.2020 17:00:00 34,4 18,9 9 5 - - N 1011,0 16 0,0
03.07.2020 16:00:00 34,4 20,0 11 6 - - NNW 1011,3 16 -
03.07.2020 15:00:00 33,9 21,1 15 8 - - NNE 1011,8 16 -
03.07.2020 14:00:00 32,2 20,6 13 7 - - NE 1012,0 16 0,0
03.07.2020 13:00:00 32,8 20,6 13 7 - - N 1012,1 16 -
03.07.2020 12:00:00 32,2 21,1 13 7 - - N 1012,3 16 -
03.07.2020 11:00:00 31,1 21,1 9 5 - - NW 1012,4 16 0,0
03.07.2020 10:00:00 30,6 21,7 9 5 - - WSW 1012,3 16 -
03.07.2020 09:00:00 29,4 21,1 8 4 - - - 1012,2 16 -
03.07.2020 08:00:00 27,2 21,1 5 3 - - - 1012,0 16 0,0
03.07.2020 07:00:00 25,0 21,1 9 5 - - WSW 1011,7 16 -
03.07.2020 06:00:00 24,4 20,6 9 5 - - WSW 1011,6 16 -
03.07.2020 05:00:00 24,4 20,6 9 5 - - WSW 1011,4 16 0,0
03.07.2020 04:00:00 24,4 20,6 11 6 - - WSW 1011,6 16 -
03.07.2020 03:00:00 25,0 20,6 11 6 - - WSW 1011,8 16 -
03.07.2020 02:00:00 24,4 20,6 13 7 - - SW 1012,3 16 0,0
03.07.2020 01:00:00 24,4 20,6 8 4 - - SW 1012,2 16 -
03.07.2020 00:00:00 25,6 20,6 5 3 - - SW 1012,5 16 -
02.07.2020 23:00:00 26,1 21,7 0 0 - - N 1012,3 16 0,0
02.07.2020 22:00:00 26,1 20,6 0 0 - - N 1011,8 16 -
02.07.2020 21:00:00 27,8 20,0 0 0 - - N 1011,3 16 -
02.07.2020 20:00:00 28,3 19,4 8 4 - - NNE 1011,0 16 0,0
02.07.2020 19:00:00 29,4 18,9 9 5 - - N 1011,3 16 -
02.07.2020 18:00:00 30,0 19,4 9 5 - - - 1011,2 16 -
02.07.2020 17:00:00 29,4 20,0 11 6 - - NE 1011,3 16 0,0
02.07.2020 16:00:00 30,0 19,4 9 5 - - NE 1011,4 16 -
02.07.2020 15:00:00 30,0 18,3 15 8 - - NNE 1011,7 16 -
02.07.2020 14:00:00 29,4 21,1 13 7 - - NNE 1011,8 16 0,0
02.07.2020 13:00:00 28,3 21,1 13 7 - - N 1012,3 16 -
02.07.2020 12:00:00 28,3 22,2 13 7 - - N 1012,4 16 -
02.07.2020 11:00:00 27,8 22,8 16 9 - - N 1012,2 16 0,0
02.07.2020 10:00:00 26,7 22,2 13 7 - - N 1012,0 16 -
02.07.2020 09:00:00 26,1 22,8 11 6 - - N 1011,5 16 -
02.07.2020 08:00:00 23,9 21,7 8 4 - - N 1011,4 16 0,0
02.07.2020 07:00:00 23,3 21,1 5 3 - - WNW 1010,9 16 -
02.07.2020 06:00:00 22,8 21,1 0 0 - - N 1010,6 16 -
02.07.2020 05:00:00 22,8 21,1 0 0 - - N 1010,2 16 0,0
02.07.2020 04:00:00 22,8 20,6 0 0 - - N 1010,3 16 -
02.07.2020 03:00:00 22,8 21,1 0 0 - - N 1010,6 16 -
02.07.2020 02:00:00 22,8 20,6 8 4 - - N 1010,9 16 0,0
02.07.2020 01:00:00 22,2 20,6 5 3 - - N 1011,1 16 -
02.07.2020 00:00:00 22,8 20,6 8 4 - - WSW 1011,0 16 -
01.07.2020 23:00:00 22,8 20,6 15 8 - - SW 1011,0 16 0,0
01.07.2020 22:00:00 22,8 21,1 8 4 - - SSW 1010,3 16 -
01.07.2020 21:00:00 22,8 21,1 11 6 - - SSW 1010,3 16 -
01.07.2020 20:00:00 22,8 20,6 9 5 - - SSW 1010,5 16 0,8
01.07.2020 19:00:00 22,2 20,0 15 8 - - SE 1010,4 16 4,3
01.07.2020 18:00:00 22,2 19,4 15 8 81 44 ENE 1011,3 6 4,3

tt = temperature
td = dewpoint
ff = wind speed
fx = gusts
dd = wind direction
ppp = reduced air pressure
vv = visibility
rr = precipitation

Next stations